$Date,$Time,DM0201B,DM0203B,DM0205B,DM0207B,DM0209B
11/07/98,00:00:01,458,166,-13,289,939
11/07/98,00:05:01,472,163,-13,304,939
11/07/98,00:10:01,429,173,-13,304,939
11/07/98,00:15:01,472,173,-13,290,939
11/07/98,00:20:01,478,173,-13,288,939
11/07/98,00:25:01,509,163,-13,292,939
11/07/98,00:30:01,497,163,-13,296,939
11/07/98,00:35:01,574,173,-13,300,939
11/07/98,00:40:01,496,173,-13,292,939
11/07/98,00:45:01,405,173,-13,288,939
11/07/98,00:50:01,522,173,-13,276,939
11/07/98,00:55:01,478,173,-13,272,939
11/07/98,01:00:01,494,173,-13,278,939
11/07/98,01:05:01,430,173,-13,288,939
11/07/98,01:10:01,393,173,-13,312,939
11/07/98,01:15:01,427,173,-12,340,939
11/07/98,01:20:01,375,173,-12,357,939
11/07/98,01:25:01,429,173,-12,409,939
11/07/98,01:30:01,386,173,-12,340,939
11/07/98,01:35:01,440,173,-12,322,939
11/07/98,01:40:01,374,173,-12,286,939
11/07/98,01:45:01,411,184,-12,271,939
11/07/98,01:50:01,375,173,-12,271,939
11/07/98,01:55:01,433,180,-12,271,939
11/07/98,02:00:01,361,180,-12,271,939
11/07/98,02:05:01,536,180,-12,278,939
11/07/98,02:10:01,511,180,-12,282,939
11/07/98,02:15:01,478,180,-12,282,939
11/07/98,02:20:01,409,192,-12,274,939
11/07/98,02:25:01,344,180,-12,270,939
11/07/98,02:30:01,419,180,-12,268,939
11/07/98,02:35:01,369,180,-11,264,939
11/07/98,02:40:01,397,161,-11,262,939
11/07/98,02:45:01,426,173,-11,264,939
11/07/98,02:50:01,410,173,-11,264,939
11/07/98,02:55:01,433,173,-11,260,939
11/07/98,03:00:01,410,173,-11,256,939
11/07/98,03:05:01,371,173,-12,264,939
11/07/98,03:10:01,440,173,-12,273,939
11/07/98,03:15:01,426,173,-12,275,937
11/07/98,03:20:01,430,173,-12,284,937
11/07/98,03:25:01,421,183,-12,297,937
11/07/98,03:30:01,428,171,-12,309,937
11/07/98,03:35:01,386,171,-12,293,937
11/07/98,03:40:01,458,171,-12,286,937
11/07/98,03:45:01,488,171,-11,271,937
11/07/98,03:50:01,461,171,-12,267,937
11/07/98,03:55:01,478,171,-12,259,937
11/07/98,04:00:01,459,171,-12,246,937
11/07/98,04:05:01,475,171,-12,236,937
11/07/98,04:10:01,432,171,-12,234,937
11/07/98,04:15:01,409,171,-12,236,937
11/07/98,04:20:01,424,171,-12,238,937
11/07/98,04:25:01,391,171,-12,234,937
11/07/98,04:30:01,365,171,-12,232,937
11/07/98,04:35:01,385,181,-12,228,937
11/07/98,04:40:01,342,181,-12,232,937
11/07/98,04:45:01,329,171,-12,240,937
11/07/98,04:50:01,308,172,-12,232,937
11/07/98,04:55:01,246,172,-12,221,937
11/07/98,05:00:01,275,174,-12,211,937
11/07/98,05:05:01,272,172,-12,199,937
11/07/98,05:10:01,250,172,-11,195,937
11/07/98,05:15:01,203,172,-11,193,937
11/07/98,05:20:01,249,161,-11,199,937
11/07/98,05:25:01,237,160,-11,207,937
11/07/98,05:30:01,298,160,-11,213,937
11/07/98,05:35:01,302,159,-11,217,937
11/07/98,05:40:01,226,159,-11,217,937
11/07/98,05:45:01,238,159,-11,209,937
11/07/98,05:50:01,210,159,-11,203,937
11/07/98,05:55:01,234,167,-11,205,937
11/07/98,06:00:01,228,154,-11,209,937
11/07/98,06:05:01,198,153,-11,207,937
11/07/98,06:10:01,209,159,-11,199,937
11/07/98,06:15:01,270,163,-11,197,937
11/07/98,06:20:01,210,162,-11,196,937
11/07/98,06:25:01,190,164,-11,183,937
11/07/98,06:30:01,195,164,-11,171,937
11/07/98,06:35:01,198,164,-11,159,937
11/07/98,06:40:01,175,163,-11,151,937
11/07/98,06:45:01,179,163,-11,141,937
11/07/98,06:50:01,146,160,-11,141,937
11/07/98,06:55:01,138,158,-11,143,937
11/07/98,07:00:01,165,140,-11,145,937
11/07/98,07:05:01,164,154,-11,155,937
11/07/98,07:10:01,171,142,-11,159,937
11/07/98,07:15:01,157,132,-11,144,937
11/07/98,07:20:01,200,143,-11,151,937
11/07/98,07:25:01,178,157,-11,139,937
11/07/98,07:30:01,223,157,-11,132,937
11/07/98,07:35:01,223,157,-11,128,937
11/07/98,07:40:01,183,157,-11,112,937
11/07/98,07:45:01,172,167,-11,104,937
11/07/98,07:50:01,186,167,-11,101,937
11/07/98,07:55:01,138,167,-11,94,937
11/07/98,08:00:01,107,167,-11,99,937
11/07/98,08:05:01,107,157,-11,108,937
11/07/98,08:10:01,109,157,-10,147,937
11/07/98,08:15:01,92,157,-10,144,937
11/07/98,08:20:01,38,157,-9,151,937
11/07/98,08:25:01,100,359,-10,135,937
11/07/98,08:30:01,121,354,-11,162,937
11/07/98,08:35:01,83,11,-11,174,937
11/07/98,08:40:01,74,354,-10,173,937
11/07/98,08:45:01,105,7,-10,186,937
11/07/98,08:50:01,75,358,-10,144,937
11/07/98,08:55:01,69,354,-11,136,937
11/07/98,09:00:01,93,349,-11,156,937
11/07/98,09:05:01,85,349,-10,163,937
11/07/98,09:10:01,96,349,-10,154,937
11/07/98,09:15:01,84,335,-10,120,937
11/07/98,09:20:01,105,324,-11,141,937
11/07/98,09:25:01,109,335,-11,144,937
11/07/98,09:30:01,105,336,-11,120,937
11/07/98,09:35:01,106,336,-11,45,937
11/07/98,09:40:01,84,325,-11,45,937
11/07/98,09:45:01,97,325,-11,99,937
11/07/98,09:50:01,113,321,-12,122,937
11/07/98,09:55:01,97,331,-12,118,937
11/07/98,10:00:01,116,319,-12,116,937
11/07/98,10:05:01,123,331,-12,112,937
11/07/98,10:10:01,116,331,-12,108,937
11/07/98,10:15:01,112,317,-12,106,937
11/07/98,10:20:01,112,317,-13,102,937
11/07/98,10:25:01,89,320,-13,100,937
11/07/98,10:30:01,102,320,-13,98,937
11/07/98,10:35:01,96,310,-13,96,937
11/07/98,10:40:01,111,310,-13,87,937
11/07/98,10:45:01,83,310,-13,84,937
11/07/98,10:50:01,110,310,-13,84,937
11/07/98,10:55:01,93,310,-13,84,935
11/07/98,11:00:01,92,310,-13,84,935
11/07/98,11:05:01,69,310,-13,82,935
11/07/98,11:10:01,74,321,-13,78,935
11/07/98,11:15:01,67,321,-13,74,935
11/07/98,11:20:01,53,321,-13,62,935
11/07/98,11:25:01,51,311,-13,58,935
11/07/98,11:30:01,46,321,-13,55,935
11/07/98,11:35:01,35,308,-13,33,935
11/07/98,11:40:01,51,293,-13,39,935
11/07/98,11:45:01,41,283,-13,50,935
11/07/98,11:50:01,53,283,-13,58,935
11/07/98,11:55:01,53,283,-13,31,935
11/07/98,12:00:01,61,281,-13,31,935
11/07/98,12:05:01,68,271,-13,31,935
11/07/98,12:10:01,73,271,-13,39,935
11/07/98,12:15:01,97,271,-13,37,935
11/07/98,12:20:01,83,271,-13,43,935
11/07/98,12:25:01,83,271,-13,51,935
11/07/98,12:30:01,81,260,-13,68,935
11/07/98,12:35:01,69,263,-13,66,935
11/07/98,12:40:01,50,259,-13,58,935
11/07/98,12:45:01,67,269,-13,56,935
11/07/98,12:50:01,67,269,-13,42,935
11/07/98,12:55:01,61,257,-13,46,935
11/07/98,13:00:01,73,246,-13,50,935
11/07/98,13:05:01,70,256,-13,51,935
11/07/98,13:10:01,59,250,-13,43,935
11/07/98,13:15:01,59,249,-13,39,935
11/07/98,13:20:01,68,240,-13,33,935
11/07/98,13:25:01,70,240,-13,31,935
11/07/98,13:30:01,81,253,-13,27,935
11/07/98,13:35:01,59,243,-13,27,935
11/07/98,13:40:01,61,220,-13,27,935
11/07/98,13:45:01,81,157,-13,29,935
11/07/98,13:50:01,67,162,-13,29,935
11/07/98,13:55:01,37,176,-13,29,935
11/07/98,14:00:01,59,221,-13,27,935
11/07/98,14:05:01,80,221,-13,29,935
11/07/98,14:10:01,79,228,-13,29,935
11/07/98,14:15:01,81,234,-13,29,935
11/07/98,14:20:01,79,181,-13,31,935
11/07/98,14:25:01,80,162,-13,31,935
11/07/98,14:30:01,66,150,-13,33,935
11/07/98,14:35:01,12,157,-13,33,935
11/07/98,14:40:01,39,148,-13,33,935
11/07/98,14:45:01,5,148,-13,33,935
11/07/98,14:50:01,89,147,-13,35,935
11/07/98,14:55:01,40,149,-13,39,935
11/07/98,15:00:01,43,177,-13,49,935
11/07/98,15:05:01,13,211,-13,61,935
11/07/98,15:10:01,2,71,-13,63,935
11/07/98,15:15:01,17,343,-13,46,935
11/07/98,15:20:01,17,322,-13,34,935
11/07/98,15:25:01,7,322,-13,36,935
11/07/98,15:30:01,7,300,-13,38,935
11/07/98,15:35:01,15,324,-13,38,935
11/07/98,15:40:01,19,326,-13,40,935
11/07/98,15:45:01,9,326,-13,44,935
11/07/98,15:50:01,9,44,-13,50,935
11/07/98,15:55:01,9,151,-13,50,935
11/07/98,16:00:01,9,151,-13,48,935
11/07/98,16:05:01,9,151,-13,48,935
11/07/98,16:10:01,9,151,-12,54,935
11/07/98,16:15:01,9,151,-12,56,935
11/07/98,16:20:01,20,151,-12,56,935
11/07/98,16:25:01,43,161,-12,68,935
11/07/98,16:30:01,31,172,-12,64,935
11/07/98,16:35:01,42,195,-12,54,935
11/07/98,16:40:01,30,161,-12,52,935
11/07/98,16:45:01,30,262,-12,52,935
11/07/98,16:50:01,63,188,-12,48,935
11/07/98,16:55:01,64,220,-12,48,935
11/07/98,17:00:01,91,178,-12,50,935
11/07/98,17:05:01,78,164,-12,54,935
11/07/98,17:10:01,135,176,-12,60,935
11/07/98,17:15:01,160,160,-12,58,935
11/07/98,17:20:01,121,177,-12,48,935
11/07/98,17:25:01,76,192,-12,42,935
11/07/98,17:30:01,88,192,-12,46,935
11/07/98,17:35:01,100,182,-12,52,935
11/07/98,17:40:01,94,209,-12,54,935
11/07/98,17:45:01,108,202,-13,54,935
11/07/98,17:50:01,102,213,-13,58,935
11/07/98,17:55:01,122,213,-13,60,935
11/07/98,18:00:01,122,223,-13,60,935
11/07/98,18:05:01,91,223,-13,54,935
11/07/98,18:10:01,78,219,-13,52,935
11/07/98,18:15:01,68,232,-13,52,935
11/07/98,18:20:01,58,242,-13,56,935
11/07/98,18:25:01,44,262,-12,58,935
11/07/98,18:30:01,44,273,-12,64,935
11/07/98,18:35:01,49,270,-12,68,935
11/07/98,18:40:01,61,293,-12,68,935
11/07/98,18:45:01,61,291,-13,64,935
11/07/98,18:50:01,73,301,-13,62,935
11/07/98,18:55:01,71,301,-13,64,935
11/07/98,19:00:01,71,291,-13,68,935
11/07/98,19:05:01,54,302,-13,70,935
11/07/98,19:10:01,51,302,-13,68,935
11/07/98,19:15:01,39,316,-13,60,935
11/07/98,19:20:01,52,327,-13,56,935
11/07/98,19:25:01,42,327,-13,65,935
11/07/98,19:30:01,45,328,-13,61,935
11/07/98,19:35:01,35,328,-13,57,935
11/07/98,19:40:01,5,314,-13,74,935
11/07/98,19:45:01,44,319,-13,94,935
11/07/98,19:50:01,44,318,-13,90,935
11/07/98,19:55:01,57,318,-13,98,935
11/07/98,20:00:01,54,315,-13,108,935
11/07/98,20:05:01,83,314,-13,108,935
11/07/98,20:10:01,79,319,-13,118,935
11/07/98,20:15:01,85,316,-13,128,935
11/07/98,20:20:01,105,316,-13,152,935
11/07/98,20:25:01,112,327,-13,156,935
11/07/98,20:30:01,83,327,-13,151,933
11/07/98,20:35:01,111,327,-13,130,933
11/07/98,20:40:01,79,327,-13,109,933
11/07/98,20:45:01,62,317,-13,91,933
11/07/98,20:50:01,55,7,-13,83,933
11/07/98,20:55:01,58,319,-13,85,933
11/07/98,21:00:01,52,323,-13,87,933
11/07/98,21:05:01,11,258,-13,83,933
11/07/98,21:10:01,0,182,-13,81,933
11/07/98,21:15:01,144,181,-12,75,933
11/07/98,21:20:01,87,157,-12,87,933
11/07/98,21:25:01,131,172,-12,99,933
11/07/98,21:30:01,206,195,-12,92,933
11/07/98,21:35:01,297,206,-12,86,933
11/07/98,21:40:01,252,205,-12,73,933
11/07/98,21:45:01,186,201,-13,68,933
11/07/98,21:50:01,320,188,-12,52,933
11/07/98,21:55:01,261,180,-12,42,933
11/07/98,22:00:01,283,204,-12,45,933
11/07/98,22:05:01,244,194,-13,53,933
11/07/98,22:10:01,367,179,-13,69,933
11/07/98,22:15:01,403,178,-13,69,933
11/07/98,22:20:01,468,180,-13,75,933
11/07/98,22:25:01,586,178,-13,84,933
11/07/98,22:30:01,582,173,-13,99,933
11/07/98,22:35:01,608,183,-13,100,933
11/07/98,22:40:01,501,183,-13,99,933
11/07/98,22:45:01,578,183,-13,105,933
11/07/98,22:50:01,565,172,-13,111,933
11/07/98,22:55:01,591,182,-13,114,933
11/07/98,23:00:01,552,182,-13,106,933
11/07/98,23:05:01,507,182,-13,115,933
11/07/98,23:10:01,537,182,-13,112,933
11/07/98,23:15:01,537,182,-13,117,933
11/07/98,23:20:01,546,177,-13,126,933
11/07/98,23:25:01,565,177,-13,129,933
11/07/98,23:30:01,561,176,-12,133,933
11/07/98,23:35:01,643,178,-12,129,931
11/07/98,23:40:01,560,162,-12,129,931
11/07/98,23:45:01,597,169,-12,133,931
11/07/98,23:50:01,569,169,-12,143,931
11/07/98,23:55:01,532,169,-12,149,931
11/08/98,00:00:01,502,169,-12,155,931
